Regional Weather Roundup
Issued by NWS

Home | Current Version | Previous Version | Graphics & Text | Print | Product List | Glossary Off
Versions: 1 2 3 4 5 6 7 8 9 10 11 12 13 14 15 16 17 18 19 20 21 22 23 24 25 26 27 28 29 30 31 32 33 34 35 36 37 38 39 40 41 42 43 44 45 46 47 48 49 50

814
ASUS43 KTOP 250408
RWRKS

WEATHER ROUNDUP FOR KANSAS
NATIONAL WEATHER SERVICE GOODLAND KS
1000 PM CST FRI FEB 24 2017

NOTE:  "FAIR" INDICATES FEW OR NO CLOUDS BELOW 12,000 FEET WITH NO
SIGNIFICANT WEATHER AND/OR OBSTRUCTIONS TO VISIBILITY.

KSZ001>006-013>018-027>032-041>047-250500-
NORTHWEST KANSAS

CITY           SKY/WX    TMP DP  RH WIND       PRES   REMARKS
GOODLAND       CLOUDY    16  13  88 W7        30.11R
HAYS           CLEAR     21  14  74 N10       30.17R WCI  10
HILL CITY      PTCLDY    20  15  81 N5        30.17R
RUSSELL        CLEAR     22  14  71 N12       30.16R WCI  10
$$

KSZ061>065-074>080-084>089-250500-
SOUTHWEST KANSAS

CITY           SKY/WX    TMP DP  RH WIND       PRES   REMARKS
DODGE CITY     CLEAR     15   8  73 N8        30.15R
ELKHART          N/A     25   8  48 N9          N/A
GARDEN CITY    CLEAR     19   8  62 N10       30.14R WCI   7
GREAT BEND     CLEAR     20  14  77 N7        30.17R
LIBERAL        CLEAR     25  12  58 N10       30.12R WCI  15
PRATT          CLEAR     19  13  77 N7        30.16R
$$

KSZ066>073-081>083-090>101-250500-
SOUTHEAST KANSAS

CITY           SKY/WX    TMP DP  RH WIND       PRES   REMARKS
CHANUTE        CLOUDY    31  20  63 NW16G28   30.11R WCI  20
COFFEYVILLE    CLOUDY    33  21  61 NW18      30.13R WCI  22
HUTCHINSON     CLEAR     24  15  68 N10       30.16R WCI  14
MEDICINE LODGE   N/A     24  16  71 N8        30.18R
NEWTON         CLEAR     24  16  71 N13       30.15R WCI  12
PARSONS        CLOUDY    32  20  61 N15       30.13R WCI  22
WICHITA INTL   PTCLDY    27  16  63 N16G23    30.16R WCI  15
WICHITA JABRA  CLEAR     25  16  68 N14       30.15R WCI  13
WICHITA MCCONL CLEAR     26  16  63 N15       30.15R WCI  14
WINFIELD       CLEAR     28  19  69 N16       30.17R WCI  16
$$

KSZ007>012-019>026-033>040-048>060-102>105-250500-
NORTHEAST KANSAS

CITY           SKY/WX    TMP DP  RH WIND       PRES   REMARKS
CONCORDIA      CLEAR     22  16  78 W12       30.14R WCI  10
EMPORIA        PTCLDY    25  17  72 NW14      30.11R WCI  13
LAWRENCE       CLEAR     25  19  78 W12       30.08R WCI  14
MANHATTAN      CLEAR     26  17  68 W6        30.13R
MARYSVILLE     PTCLDY    27  19  74 NW13      30.09R WCI  16
OLATHE IND     CLEAR     24  18  77 NW14      30.07R WCI  12
OLATHE EXE     PTCLDY    24  19  81 NW13      30.05R WCI  12
SALINA         CLEAR     27  16  63 NW15      30.17R WCI  15
TOPEKA BILLARD CLEAR     25  20  81 W8        30.10R
TOPEKA FORBES  CLEAR     26  18  71 NW12      30.09R WCI  16
$$




USA.gov is the U.S. government's official web portal to all federal, state and local government web resources and services.